FW2557 Weather Reports


time (UTC)temp
C
wind
direction
speed
KPH
gust
KPH
rain 1hr
cm
rain 24hr
cm
rain mn
cm
humidity
%
barometer
mb
20260507231559 11 257 0.0 0.0 0.00 0.15 0.00 95 1017.6
20260507230105 11 257 0.0 0.0 0.00 0.15 0.00 95 1017.7
20260507224556 11 257 0.0 0.0 0.00 0.15 0.00 95 1017.6
20260507223053 11 257 0.0 0.0 0.00 0.15 0.00 95 1017.9
20260507221550 12 256 0.0 0.0 0.00 0.15 0.00 95 1017.9
20260507220047 12 279 0.0 1.6 0.00 0.15 0.00 95 1018.1
20260507214550 12 355 0.0 1.6 0.00 0.15 0.15 95 1018.1
20260507213055 12 34 0.0 0.0 0.00 0.15 0.15 95 1018.1
20260507211547 12 34 0.0 1.6 0.00 0.15 0.15 95 1018.1
20260507210045 13 5 0.0 0.0 0.00 0.15 0.15 95 1018.1
20260507204553 12 5 0.0 0.0 0.00 0.15 0.15 95 1018.1
20260507203045 13 257 0.0 0.0 0.00 0.15 0.15 95 1018.1
20260507201550 13 257 0.0 0.0 0.00 0.15 0.15 95 1018.1
20260507200051 13 257 0.0 3.2 0.00 0.15 0.15 95 1017.8
20260507194550 13 294 0.0 0.0 0.00 0.15 0.15 95 1017.9
20260507193043 14 294 0.0 3.2 0.00 0.15 0.15 95 1017.9
20260507191556 14 348 0.0 0.0 0.00 0.15 0.15 95 1017.8
20260507190042 14 333 0.0 4.8 0.00 0.15 0.15 94 1017.7
20260507184554 15 327 0.0 0.0 0.00 0.15 0.15 94 1017.5
20260507183045 15 327 0.0 0.0 0.00 0.15 0.15 94 1017.6
20260507181540 15 323 0.0 1.6 0.00 0.15 0.15 94 1017.6
20260507180041 16 271 0.0 0.0 0.00 0.15 0.15 94 1017.3
20260507174539 16 271 1.6 3.2 0.00 0.15 0.15 93 1017.3
20260507173037 16 215 0.0 0.0 0.00 0.15 0.15 93 1017.1
20260507171537 16 215 0.0 3.2 0.00 0.15 0.15 92 1017.1
20260507170037 17 273 0.0 0.0 0.00 0.15 0.15 91 1017.1
20260507164643 17 273 0.0 0.0 0.00 0.15 0.15 90 1017.3
20260507163038 17 273 0.0 0.0 0.00 0.15 0.15 89 1017.4
20260507161539 17 273 0.0 1.6 0.00 0.15 0.15 86 1017.5
20260507160037 18 268 0.0 0.0 0.00 0.15 0.15 87 1017.7
20260507154536 18 268 0.0 1.6 0.00 0.15 0.15 78 1017.7
20260507153033 18 273 0.0 1.6 0.00 0.15 0.15 84 1017.7
20260507151532 18 336 0.0 0.0 0.00 0.15 0.15 86 1017.6
20260507150030 18 29 1.6 4.8 0.00 0.15 0.15 77 1017.6
20260507144530 19 307 0.0 3.2 0.00 0.15 0.15 78 1017.8
20260507143052 19 307 1.6 3.2 0.00 0.15 0.15 76 1017.9
20260507141537 19 198 0.0 3.2 0.00 0.15 0.15 75 1018.1
20260507140025 18 44 1.6 3.2 0.00 0.15 0.15 76 1018.0
20260507134524 18 51 0.0 4.8 0.00 0.15 0.15 81 1017.8
20260507133024 18 32 0.0 6.4 0.00 0.15 0.15 78 1018.0
20260507131521 18 61 3.2 6.4 0.00 0.15 0.15 78 1018.1
20260507130031 18 109 0.0 4.8 0.00 0.15 0.15 81 1018.2
20260507124516 17 123 0.0 1.6 0.00 0.15 0.15 83 1018.2
20260507123015 17 108 0.0 4.8 0.00 0.15 0.15 85 1018.5
20260507121514 17 191 0.0 4.8 0.00 0.15 0.15 82 1018.4
20260507120013 17 259 0.0 8.0 0.00 0.15 0.15 83 1018.7
20260507114517 17 231 0.0 4.8 0.00 0.15 0.15 87 1018.8
20260507113008 16 211 1.6 4.8 0.00 0.15 0.15 85 1018.8
20260507111507 16 170 0.0 1.6 0.03 0.15 0.15 89 1019.2
20260507110004 16 5 0.0 3.2 0.05 0.15 0.15 89 1019.4
20260507104502 16 101 0.0 1.6 0.05 0.15 0.15 92 1019.6
20260507103101 16 208 0.0 3.2 0.08 0.15 0.15 93 1020.0
20260507101602 16 257 0.0 1.6 0.08 0.13 0.13 92 1020.0
20260507100100 15 339 0.0 1.6 0.08 0.10 0.10 92 1019.9
20260507094554 16 355 0.0 3.2 0.08 0.08 0.08 91 1019.6
20260507093053 16 5 0.0 4.8 0.05 0.05 0.05 91 1019.5
20260507091551 16 217 0.0 0.0 0.05 0.05 0.05 89 1019.5
20260507090059 16 217 0.0 0.0 0.03 0.03 0.03 88 1019.4
20260507084553 16 217 0.0 3.2 0.00 0.00 0.00 89 1019.2
20260507083044 16 31 0.0 0.0 0.00 0.00 0.00 85 1018.8
20260507081551 16 31 0.0 6.4 0.00 0.00 0.00 82 1018.6
20260507080039 16 88 0.0 3.2 0.00 0.00 0.00 82 1018.4
20260507074536 16 189 0.0 0.0 0.00 0.00 0.00 85 1018.1
20260507073034 16 230 0.0 1.6 0.00 0.00 0.00 84 1017.7
20260507071536 15 236 0.0 3.2 0.00 0.00 0.00 82 1017.7
20260507070033 15 263 0.0 3.2 0.00 0.00 0.00 83 1017.6
20260507064541 15 173 0.0 1.6 0.00 0.00 0.00 81 1017.6
20260507063024 15 36 0.0 3.2 0.00 0.00 0.00 82 1017.6
20260507061522 14 53 0.0 3.2 0.00 0.00 0.00 84 1017.7
20260507060022 14 40 0.0 3.2 0.00 0.00 0.00 86 1017.7
20260507054515 13 328 0.0 1.6 0.00 0.00 0.00 86 1017.9
20260507053013 13 39 0.0 1.6 0.00 0.00 0.00 86 1017.7
20260507051509 13 37 0.0 3.2 0.00 0.00 0.00 89 1017.6
20260507050010 11 296 0.0 0.0 0.00 0.00 0.00 93 1017.4
20260507044502 11 296 0.0 1.6 0.00 0.00 0.00 93 1017.2
20260507043100 10 230 0.0 0.0 0.00 0.00 0.00 94 1017.1
20260507041559 10 292 0.0 0.0 0.00 0.00 0.00 94 1016.9
20260507040054 10 307 0.0 0.0 0.00 0.00 0.00 94 1016.7
20260507034551 9 321 0.0 1.6 0.00 0.00 0.00 94 1016.7
20260507033051 9 334 0.0 0.0 0.00 0.00 0.00 94 1016.5
20260507031549 9 271 0.0 0.0 0.00 0.00 0.00 94 1016.4
20260507030048 9 271 0.0 0.0 0.00 0.00 0.00 94 1016.4
20260507024547 9 271 0.0 1.6 0.00 0.00 0.00 93 1016.4
20260507023045 10 271 0.0 1.6 0.00 0.00 0.00 93 1016.3
20260507021545 10 240 0.0 0.0 0.00 0.00 0.00 93 1016.3
20260507020057 10 240 0.0 1.6 0.00 0.00 0.00 93 1016.3
20260507014546 10 240 0.0 0.0 0.00 0.00 0.00 93 1016.3
20260507013042 10 271 0.0 0.0 0.00 0.00 0.00 92 1016.1
20260507011542 10 240 0.0 1.6 0.00 0.00 0.00 93 1016.2
20260507010056 10 240 0.0 0.0 0.00 0.00 0.00 93 1016.1
20260507004538 10 240 0.0 0.0 0.00 0.00 0.00 93 1016.1
20260507003039 10 240 0.0 1.6 0.00 0.00 0.00 93 1016.0
20260507001537 10 269 0.0 0.0 0.00 0.00 0.00 93 1016.1
20260507000036 10 277 0.0 3.2 0.00 0.00 0.00 93 1016.0
20260506234534 10 261 0.0 4.8 0.00 0.00 0.00 92 1016.0
20260506233033 10 5 0.0 0.0 0.00 0.00 0.00 91 1016.0